Location: St. Louis
(38.6270°N, 90.1994°W)
Time: 01:55:06
(UTC-06:00)

Transit 4A - Pass Details

Date: 08 December 2021
Orbit: 863 x 981 km, 66.8° (Epoch: 24 January)

Event Time Altitude Azimuth Distance (km) Brightness Sun altitude
Rises 18:03:02 0° 209° (SSW) 3,440 11.6 -15.9°
Reaches altitude 10° 18:05:28 10° 210° (SSW) 2,515 10.8 -16.3°
Maximum altitude 18:11:17 82° 298° (WNW) 902 7.8 -17.4°
Enters shadow 18:16:15 16° 26° (NNE) 2,204 9.5 -18.4°
Drops below altitude 10° 18:17:19 10° 27° (NNE) 2,598 - -18.6°
Sets 18:19:53 0° 28° (NNE) 3,561 - -19.0°
